Time,TemperatureF,DewpointF,PressureIn,WindDirection,WindDirectionDegrees,WindSpeedMPH,WindSpeedGustMPH,Humidity,HourlyPrecipIn,Conditions,Clouds,dailyrainin,SoftwareType,DateUTC
2013-08-20 00:02:00,71.3,69.2,29.97,North,0,0.0,0.0,93,0.00,,---,0.00,VWS V14.01,2013-08-20 05:02:00,
2013-08-20 00:07:00,71.3,69.2,29.97,North,0,0.0,0.0,93,0.00,,---,0.00,VWS V14.01,2013-08-20 05:07:00,
2013-08-20 00:12:00,71.3,69.2,29.97,North,0,0.0,0.0,93,0.00,,---,0.00,VWS V14.01,2013-08-20 05:12:00,
2013-08-20 00:17:00,71.2,69.0,29.97,North,0,0.0,0.0,93,0.00,,---,0.00,VWS V14.01,2013-08-20 05:17:00,
2013-08-20 00:22:00,71.2,69.0,29.97,North,0,0.0,0.0,93,0.00,,---,0.00,VWS V14.01,2013-08-20 05:22:00,
2013-08-20 00:27:00,71.0,68.9,29.97,North,0,0.0,0.0,93,0.00,,---,0.00,VWS V14.01,2013-08-20 05:27:00,
2013-08-20 00:32:00,70.8,68.7,29.97,North,0,0.0,0.0,93,0.00,,---,0.00,VWS V14.01,2013-08-20 05:32:00,
2013-08-20 00:37:00,70.8,68.7,29.97,North,0,0.0,0.0,93,0.00,,---,0.00,VWS V14.01,2013-08-20 05:37:00,
2013-08-20 00:42:00,70.8,68.7,29.97,North,0,0.0,0.0,93,0.00,,---,0.00,VWS V14.01,2013-08-20 05:42:00,
2013-08-20 00:47:00,70.8,69.0,29.97,North,0,0.0,0.0,94,0.00,,---,0.00,VWS V14.01,2013-08-20 05:47:00,
2013-08-20 00:52:00,70.6,68.8,29.97,North,0,0.0,0.0,94,0.00,,---,0.00,VWS V14.01,2013-08-20 05:52:00,
2013-08-20 00:57:00,70.6,68.8,29.97,North,0,0.0,0.0,94,0.00,,---,0.00,VWS V14.01,2013-08-20 05:57:00,
2013-08-20 01:02:00,70.6,68.8,29.97,North,0,0.0,0.0,94,0.00,,---,0.00,VWS V14.01,2013-08-20 06:02:00,
2013-08-20 01:07:00,70.6,68.8,29.97,North,0,0.0,0.0,94,0.00,,---,0.00,VWS V14.01,2013-08-20 06:07:00,
2013-08-20 01:12:00,70.4,68.6,29.97,North,0,0.0,0.0,94,0.00,,---,0.00,VWS V14.01,2013-08-20 06:12:00,
2013-08-20 01:17:00,70.4,68.6,29.97,North,0,0.0,0.0,94,0.00,,---,0.00,VWS V14.01,2013-08-20 06:17:00,
2013-08-20 01:22:00,70.4,68.6,29.97,North,0,0.0,0.0,94,0.00,,---,0.00,VWS V14.01,2013-08-20 06:22:00,
2013-08-20 01:27:00,70.3,68.5,29.97,North,0,0.0,0.0,94,0.00,,---,0.00,VWS V14.01,2013-08-20 06:27:00,
2013-08-20 01:32:00,70.3,68.5,29.97,North,0,0.0,0.0,94,0.00,,---,0.00,VWS V14.01,2013-08-20 06:32:00,
2013-08-20 01:37:00,70.1,68.0,29.97,North,0,0.0,0.0,93,0.00,,---,0.00,VWS V14.01,2013-08-20 06:37:00,
2013-08-20 01:42:00,70.1,68.3,29.97,North,0,0.0,0.0,94,0.00,,---,0.00,VWS V14.01,2013-08-20 06:42:00,
2013-08-20 01:47:00,70.1,68.3,29.97,North,0,0.0,0.0,94,0.00,,---,0.00,VWS V14.01,2013-08-20 06:47:00,
2013-08-20 01:52:00,70.1,68.3,29.97,North,0,0.0,0.0,94,0.00,,---,0.00,VWS V14.01,2013-08-20 06:52:00,
2013-08-20 01:57:00,69.9,68.1,29.97,North,0,0.0,0.0,94,0.00,,---,0.00,VWS V14.01,2013-08-20 06:57:00,
2013-08-20 02:02:00,69.9,68.1,29.97,North,0,0.0,0.0,94,0.00,,---,0.00,VWS V14.01,2013-08-20 07:02:00,
2013-08-20 02:07:00,69.7,67.9,29.97,North,0,0.0,0.0,94,0.00,,---,0.00,VWS V14.01,2013-08-20 07:07:00,
2013-08-20 02:12:00,69.7,67.9,29.97,North,0,0.0,0.0,94,0.00,,---,0.00,VWS V14.01,2013-08-20 07:12:00,
2013-08-20 02:18:00,69.7,67.9,29.97,North,0,0.0,0.0,94,0.00,,---,0.00,VWS V14.01,2013-08-20 07:18:00,
2013-08-20 02:23:00,69.7,67.9,29.97,North,0,0.0,0.0,94,0.00,,---,0.00,VWS V14.01,2013-08-20 07:23:00,
2013-08-20 02:28:00,69.5,67.7,29.97,North,0,0.0,0.0,94,0.00,,---,0.00,VWS V14.01,2013-08-20 07:28:00,
2013-08-20 02:33:00,69.5,67.7,29.97,North,0,0.0,0.0,94,0.00,,---,0.00,VWS V14.01,2013-08-20 07:33:00,
2013-08-20 02:38:00,69.5,67.7,29.97,North,0,0.0,0.0,94,0.00,,---,0.00,VWS V14.01,2013-08-20 07:38:00,
2013-08-20 02:43:00,69.4,67.6,29.97,North,0,0.0,0.0,94,0.00,,---,0.00,VWS V14.01,2013-08-20 07:43:00,
2013-08-20 02:48:00,69.4,67.6,29.97,North,0,0.0,0.0,94,0.00,,---,0.00,VWS V14.01,2013-08-20 07:48:00,
2013-08-20 02:53:00,69.4,67.6,29.97,North,0,0.0,0.0,94,0.00,,---,0.00,VWS V14.01,2013-08-20 07:53:00,
2013-08-20 02:58:00,69.2,67.4,29.97,North,0,0.0,0.0,94,0.00,,---,0.00,VWS V14.01,2013-08-20 07:58:00,
2013-08-20 03:03:00,69.2,67.4,29.97,North,0,0.0,0.0,94,0.00,,---,0.00,VWS V14.01,2013-08-20 08:03:00,
2013-08-20 03:08:00,69.2,67.4,29.97,North,0,0.0,0.0,94,0.00,,---,0.00,VWS V14.01,2013-08-20 08:08:00,
2013-08-20 03:13:00,69.2,67.4,29.97,North,0,0.0,0.0,94,0.00,,---,0.00,VWS V14.01,2013-08-20 08:13:00,
2013-08-20 03:18:00,69.2,67.4,29.97,North,0,0.0,0.0,94,0.00,,---,0.00,VWS V14.01,2013-08-20 08:18:00,
2013-08-20 03:23:00,69.2,67.4,29.97,North,0,0.0,0.0,94,0.00,,---,0.00,VWS V14.01,2013-08-20 08:23:00,
2013-08-20 03:28:00,69.2,67.4,29.97,North,0,0.0,0.0,94,0.00,,---,0.00,VWS V14.01,2013-08-20 08:28:00,
2013-08-20 03:33:00,69.0,67.5,29.97,North,0,0.0,0.0,95,0.00,,---,0.00,VWS V14.01,2013-08-20 08:33:00,
2013-08-20 03:38:00,69.0,67.2,29.97,North,0,0.0,0.0,94,0.00,,---,0.00,VWS V14.01,2013-08-20 08:38:00,
2013-08-20 03:43:00,69.0,67.2,29.97,North,0,0.0,0.0,94,0.00,,---,0.00,VWS V14.01,2013-08-20 08:43:00,
2013-08-20 03:48:00,68.8,67.3,29.97,North,0,0.0,0.0,95,0.00,,---,0.00,VWS V14.01,2013-08-20 08:48:00,
2013-08-20 03:53:00,68.8,67.0,29.97,North,0,0.0,0.0,94,0.00,,---,0.00,VWS V14.01,2013-08-20 08:53:00,
2013-08-20 03:58:00,68.8,67.3,29.97,North,0,0.0,0.0,95,0.00,,---,0.00,VWS V14.01,2013-08-20 08:58:00,
2013-08-20 04:03:00,68.8,67.3,29.97,North,0,0.0,0.0,95,0.00,,---,0.00,VWS V14.01,2013-08-20 09:03:00,
2013-08-20 04:08:00,68.8,67.3,29.97,North,0,0.0,0.0,95,0.00,,---,0.00,VWS V14.01,2013-08-20 09:08:00,
2013-08-20 04:13:00,68.8,67.3,29.97,North,0,0.0,0.0,95,0.00,,---,0.00,VWS V14.01,2013-08-20 09:13:00,
2013-08-20 04:18:00,68.8,67.3,29.97,North,0,0.0,0.0,95,0.00,,---,0.00,VWS V14.01,2013-08-20 09:18:00,
2013-08-20 04:23:00,68.8,67.3,29.97,North,0,0.0,0.0,95,0.00,,---,0.00,VWS V14.01,2013-08-20 09:23:00,
2013-08-20 04:28:00,68.6,67.2,29.97,North,0,0.0,0.0,95,0.00,,---,0.00,VWS V14.01,2013-08-20 09:28:00,
2013-08-20 04:33:00,68.6,67.2,29.97,North,0,0.0,0.0,95,0.00,,---,0.00,VWS V14.01,2013-08-20 09:33:00,
2013-08-20 04:38:00,68.6,67.2,29.97,North,0,0.0,0.0,95,0.00,,---,0.00,VWS V14.01,2013-08-20 09:38:00,
2013-08-20 04:43:00,68.6,67.2,29.97,North,0,0.0,0.0,95,0.00,,---,0.00,VWS V14.01,2013-08-20 09:43:00,
2013-08-20 04:48:00,68.6,67.2,29.97,North,0,0.0,0.0,95,0.00,,---,0.00,VWS V14.01,2013-08-20 09:48:00,
2013-08-20 04:53:00,68.6,67.2,29.97,North,0,0.0,0.0,95,0.00,,---,0.00,VWS V14.01,2013-08-20 09:53:00,
2013-08-20 04:58:00,68.5,67.0,29.97,North,0,0.0,0.0,95,0.00,,---,0.00,VWS V14.01,2013-08-20 09:58:00,
2013-08-20 05:03:00,68.5,67.0,29.97,North,0,0.0,0.0,95,0.00,,---,0.00,VWS V14.01,2013-08-20 10:03:00,
2013-08-20 05:08:00,68.5,67.0,29.97,North,0,0.0,0.0,95,0.00,,---,0.00,VWS V14.01,2013-08-20 10:08:00,
2013-08-20 05:13:00,68.5,67.0,29.97,North,0,0.0,0.0,95,0.00,,---,0.00,VWS V14.01,2013-08-20 10:13:00,
2013-08-20 05:18:00,68.3,66.8,29.97,North,0,0.0,0.0,95,0.00,,---,0.00,VWS V14.01,2013-08-20 10:18:00,
2013-08-20 05:23:00,68.1,66.6,29.97,North,0,0.0,0.0,95,0.00,,---,0.00,VWS V14.01,2013-08-20 10:23:00,
2013-08-20 05:28:00,68.1,66.6,29.97,North,0,0.0,0.0,95,0.00,,---,0.00,VWS V14.01,2013-08-20 10:28:00,
2013-08-20 05:33:00,68.1,66.6,29.97,North,0,0.0,0.0,95,0.00,,---,0.00,VWS V14.01,2013-08-20 10:33:00,
2013-08-20 05:38:00,68.1,66.6,29.97,North,0,0.0,0.0,95,0.00,,---,0.00,VWS V14.01,2013-08-20 10:38:00,
2013-08-20 05:43:00,67.9,66.4,29.97,North,0,0.0,0.0,95,0.00,,---,0.00,VWS V14.01,2013-08-20 10:43:00,
2013-08-20 05:48:00,68.1,66.6,29.97,North,0,0.0,0.0,95,0.00,,---,0.00,VWS V14.01,2013-08-20 10:48:00,
2013-08-20 05:53:00,68.1,66.6,29.97,North,0,0.0,0.0,95,0.00,,---,0.00,VWS V14.01,2013-08-20 10:53:00,
2013-08-20 05:58:00,68.1,66.6,29.97,North,0,0.0,0.0,95,0.00,,---,0.00,VWS V14.01,2013-08-20 10:58:00,
2013-08-20 06:03:00,68.1,66.6,29.97,North,0,0.0,0.0,95,0.00,,---,0.00,VWS V14.01,2013-08-20 11:03:00,
2013-08-20 06:08:00,68.1,66.6,29.97,North,0,0.0,0.0,95,0.00,,---,0.00,VWS V14.01,2013-08-20 11:08:00,
2013-08-20 06:13:00,68.1,66.6,29.97,North,0,0.0,0.0,95,0.00,,---,0.00,VWS V14.01,2013-08-20 11:13:00,
2013-08-20 06:18:00,67.9,66.4,29.97,North,0,0.0,0.0,95,0.00,,---,0.00,VWS V14.01,2013-08-20 11:18:00,
2013-08-20 06:23:00,67.9,66.4,30.00,North,0,0.0,0.0,95,0.00,,---,0.00,VWS V14.01,2013-08-20 11:23:00,
2013-08-20 06:28:00,67.9,66.4,30.00,North,0,0.0,0.0,95,0.00,,---,0.00,VWS V14.01,2013-08-20 11:28:00,
2013-08-20 06:33:00,68.1,66.9,30.00,North,0,0.0,0.0,96,0.00,,---,0.00,VWS V14.01,2013-08-20 11:33:00,
2013-08-20 06:38:00,67.9,66.4,30.00,North,0,0.0,0.0,95,0.00,,---,0.00,VWS V14.01,2013-08-20 11:38:00,
2013-08-20 06:43:00,67.9,66.4,30.00,North,0,0.0,0.0,95,0.00,,---,0.00,VWS V14.01,2013-08-20 11:43:00,
2013-08-20 06:48:00,68.1,66.9,30.00,North,0,0.0,0.0,96,0.00,,---,0.00,VWS V14.01,2013-08-20 11:48:00,
2013-08-20 06:53:00,68.1,66.9,30.00,ESE,112,0.0,0.0,96,0.00,,---,0.00,VWS V14.01,2013-08-20 11:53:00,
2013-08-20 06:58:00,68.1,66.9,30.00,SE,135,0.0,0.0,96,0.00,,---,0.00,VWS V14.01,2013-08-20 11:58:00,
2013-08-20 07:03:00,68.1,66.9,30.00,SE,135,0.0,0.0,96,0.00,,---,0.00,VWS V14.01,2013-08-20 12:03:00,
2013-08-20 07:09:00,68.3,67.1,30.00,SE,135,0.0,0.0,96,0.00,,---,0.00,VWS V14.01,2013-08-20 12:09:00,
2013-08-20 07:14:00,68.3,67.1,30.00,NNW,338,0.0,0.0,96,0.00,,---,0.00,VWS V14.01,2013-08-20 12:14:00,
2013-08-20 07:19:00,68.3,67.1,30.00,NNW,338,0.0,0.0,96,0.00,,---,0.00,VWS V14.01,2013-08-20 12:19:00,
2013-08-20 07:24:00,68.5,67.3,30.00,NNW,338,0.0,0.0,96,0.00,,---,0.00,VWS V14.01,2013-08-20 12:24:00,
2013-08-20 07:29:00,68.6,67.5,30.00,North,0,0.0,0.0,96,0.00,,---,0.00,VWS V14.01,2013-08-20 12:29:00,
2013-08-20 07:34:00,68.8,67.9,30.00,NNE,22,0.0,0.0,97,0.00,,---,0.00,VWS V14.01,2013-08-20 12:34:00,
2013-08-20 07:39:00,69.0,67.8,30.00,NNE,22,0.0,0.0,96,0.00,,---,0.00,VWS V14.01,2013-08-20 12:39:00,
2013-08-20 07:44:00,69.2,68.0,30.00,NNE,22,0.0,0.0,96,0.00,,---,0.00,VWS V14.01,2013-08-20 12:44:00,
2013-08-20 07:49:00,69.4,68.5,30.00,NE,45,0.0,0.0,97,0.00,,---,0.00,VWS V14.01,2013-08-20 12:49:00,
2013-08-20 07:54:00,69.5,68.7,30.00,NE,45,0.0,0.0,97,0.00,,---,0.00,VWS V14.01,2013-08-20 12:54:00,
2013-08-20 07:59:00,69.9,69.0,30.00,NE,45,0.0,0.0,97,0.00,,---,0.00,VWS V14.01,2013-08-20 12:59:00,
2013-08-20 08:04:00,70.1,69.2,30.00,NE,45,0.0,0.0,97,0.00,,---,0.00,VWS V14.01,2013-08-20 13:04:00,
2013-08-20 08:09:00,70.3,69.4,30.00,NE,45,0.0,0.0,97,0.00,,---,0.00,VWS V14.01,2013-08-20 13:09:00,
2013-08-20 08:14:00,70.6,69.7,30.00,NNE,22,0.0,0.0,97,0.00,,---,0.00,VWS V14.01,2013-08-20 13:14:00,
2013-08-20 08:19:00,71.0,69.8,30.00,NNE,22,0.0,0.0,96,0.00,,---,0.00,VWS V14.01,2013-08-20 13:19:00,
2013-08-20 08:24:00,71.3,70.1,30.03,NNE,22,0.0,0.0,96,0.00,,---,0.00,VWS V14.01,2013-08-20 13:24:00,
2013-08-20 08:29:00,71.7,70.8,30.03,NNE,22,0.0,0.0,97,0.00,,---,0.00,VWS V14.01,2013-08-20 13:29:00,
2013-08-20 08:34:00,72.1,71.2,30.03,NNE,22,0.0,0.0,97,0.00,,---,0.00,VWS V14.01,2013-08-20 13:34:00,
2013-08-20 08:39:00,72.4,71.5,30.03,NNE,22,0.0,0.0,97,0.00,,---,0.00,VWS V14.01,2013-08-20 13:39:00,
2013-08-20 08:44:00,73.0,71.8,30.03,ENE,68,0.0,0.0,96,0.00,,---,0.00,VWS V14.01,2013-08-20 13:44:00,
2013-08-20 08:49:00,73.3,72.4,30.03,East,90,0.0,0.0,97,0.00,,---,0.00,VWS V14.01,2013-08-20 13:49:00,
2013-08-20 08:54:00,73.7,72.8,30.03,East,90,0.0,0.0,97,0.00,,---,0.00,VWS V14.01,2013-08-20 13:54:00,
2013-08-20 08:59:00,74.4,73.2,30.03,SSW,202,0.0,0.9,96,0.00,,---,0.00,VWS V14.01,2013-08-20 13:59:00,
2013-08-20 09:04:00,74.8,73.6,30.03,ESE,112,0.0,0.0,96,0.00,,---,0.00,VWS V14.01,2013-08-20 14:04:00,
2013-08-20 09:09:00,75.1,73.9,30.03,ESE,112,0.0,0.0,96,0.00,,---,0.00,VWS V14.01,2013-08-20 14:09:00,
2013-08-20 09:14:00,75.1,73.9,30.03,NE,45,0.0,0.0,96,0.00,,---,0.00,VWS V14.01,2013-08-20 14:14:00,
2013-08-20 09:19:00,75.8,74.6,30.03,NE,45,0.0,0.0,96,0.00,,---,0.05,VWS V14.01,2013-08-20 14:19:00,
2013-08-20 09:24:00,76.4,74.8,30.03,NE,45,0.0,0.0,95,0.00,,---,0.00,VWS V14.01,2013-08-20 14:24:00,
2013-08-20 09:29:00,76.9,75.1,30.03,SSW,202,0.0,0.0,94,0.00,,---,0.00,VWS V14.01,2013-08-20 14:29:00,
2013-08-20 09:34:00,77.6,75.8,30.03,West,270,0.0,0.0,94,0.00,,---,0.00,VWS V14.01,2013-08-20 14:34:00,
2013-08-20 09:39:00,78.2,75.7,30.03,South,180,0.0,0.0,92,0.00,,---,0.00,VWS V14.01,2013-08-20 14:39:00,
2013-08-20 09:44:00,78.7,75.9,30.03,West,270,0.0,0.0,91,0.00,,---,0.00,VWS V14.01,2013-08-20 14:44:00,
2013-08-20 09:49:00,79.3,76.1,30.03,ENE,68,0.0,0.0,90,0.00,,---,0.00,VWS V14.01,2013-08-20 14:49:00,
2013-08-20 09:54:00,79.8,76.3,30.06,NNW,338,0.0,0.0,89,0.00,,---,0.00,VWS V14.01,2013-08-20 14:54:00,
2013-08-20 09:59:00,80.2,75.6,30.06,SSE,158,0.9,2.5,86,0.00,,---,0.00,VWS V14.01,2013-08-20 14:59:00,
2013-08-20 10:04:00,80.3,75.1,30.06,NNW,338,0.0,0.0,84,0.00,,---,0.00,VWS V14.01,2013-08-20 15:04:00,
2013-08-20 10:09:00,80.3,74.0,30.06,ENE,68,0.0,0.0,81,0.00,,---,0.00,VWS V14.01,2013-08-20 15:09:00,
2013-08-20 10:14:00,80.5,73.8,30.06,NNW,338,0.0,0.0,80,0.00,,---,0.00,VWS V14.01,2013-08-20 15:14:00,
2013-08-20 10:19:00,81.1,74.7,30.06,NNW,338,0.0,0.0,81,0.00,,---,0.00,VWS V14.01,2013-08-20 15:19:00,
2013-08-20 10:24:00,81.1,74.7,30.03,WSW,248,0.0,0.0,81,0.00,,---,0.00,VWS V14.01,2013-08-20 15:24:00,
2013-08-20 10:29:00,81.2,74.1,30.03,WSW,248,0.0,0.0,79,0.00,,---,0.00,VWS V14.01,2013-08-20 15:29:00,
2013-08-20 10:34:00,81.6,74.5,30.03,West,270,0.0,0.0,79,0.00,,---,0.00,VWS V14.01,2013-08-20 15:34:00,
2013-08-20 10:39:00,81.8,74.2,30.03,SSE,158,0.0,0.0,78,0.00,,---,0.00,VWS V14.01,2013-08-20 15:39:00,
2013-08-20 10:44:00,82.0,74.4,30.03,ENE,68,0.0,0.0,78,0.00,,---,0.00,VWS V14.01,2013-08-20 15:44:00,
2013-08-20 10:49:00,82.1,74.6,30.03,East,90,0.0,0.0,78,0.00,,---,0.00,VWS V14.01,2013-08-20 15:49:00,
2013-08-20 10:54:00,82.1,74.2,30.06,East,90,0.0,0.0,77,0.00,,---,0.00,VWS V14.01,2013-08-20 15:54:00,
2013-08-20 10:59:00,82.0,73.7,30.06,East,90,0.0,0.0,76,0.00,,---,0.00,VWS V14.01,2013-08-20 15:59:00,
2013-08-20 11:04:00,82.1,73.4,30.06,North,0,0.0,0.0,75,0.00,,---,0.00,VWS V14.01,2013-08-20 16:04:00,
2013-08-20 11:09:00,82.1,73.0,30.06,NW,315,0.0,0.0,74,0.00,,---,0.00,VWS V14.01,2013-08-20 16:09:00,
2013-08-20 11:14:00,82.5,73.0,30.06,WNW,292,1.6,3.1,73,0.00,,---,0.00,VWS V14.01,2013-08-20 16:14:00,
2013-08-20 11:20:00,83.0,73.5,30.06,ENE,68,0.0,0.0,73,0.00,,---,0.00,VWS V14.01,2013-08-20 16:20:00,
2013-08-20 11:25:00,82.9,72.9,30.06,NNW,338,0.0,0.0,72,0.00,,---,0.00,VWS V14.01,2013-08-20 16:25:00,
2013-08-20 11:30:00,83.0,73.1,30.06,NNW,338,0.0,0.0,72,0.00,,---,0.00,VWS V14.01,2013-08-20 16:30:00,
2013-08-20 11:35:00,83.6,73.6,30.06,SSE,158,3.1,3.1,72,0.00,,---,0.00,VWS V14.01,2013-08-20 16:35:00,
2013-08-20 11:40:00,83.4,72.6,30.03,WSW,248,0.0,1.1,70,0.00,,---,0.00,VWS V14.01,2013-08-20 16:40:00,
2013-08-20 11:45:00,83.2,72.8,30.03,NNE,22,0.0,0.0,71,0.00,,---,0.00,VWS V14.01,2013-08-20 16:45:00,
2013-08-20 11:50:00,83.2,73.3,30.03,NNE,22,0.0,0.0,72,0.00,,---,0.00,VWS V14.01,2013-08-20 16:50:00,
2013-08-20 11:55:00,83.8,73.4,30.03,NW,315,2.5,2.9,71,0.00,,---,0.00,VWS V14.01,2013-08-20 16:55:00,
2013-08-20 12:00:00,84.1,72.9,30.03,NNW,338,0.0,0.0,69,0.00,,---,0.00,VWS V14.01,2013-08-20 17:00:00,
2013-08-20 12:05:00,84.3,72.6,30.03,NW,315,3.8,4.0,68,0.00,,---,0.00,VWS V14.01,2013-08-20 17:05:00,
2013-08-20 12:10:00,84.3,72.2,30.03,WSW,248,0.0,0.0,67,0.00,,---,0.00,VWS V14.01,2013-08-20 17:10:00,
2013-08-20 12:15:00,83.9,72.7,30.03,SE,135,1.6,2.0,69,0.00,,---,0.00,VWS V14.01,2013-08-20 17:15:00,
2013-08-20 12:20:00,83.9,72.7,30.03,SSE,158,0.0,0.0,69,0.00,,---,0.00,VWS V14.01,2013-08-20 17:20:00,
2013-08-20 12:25:00,83.9,72.2,30.03,ESE,112,0.0,0.0,68,0.00,,---,0.00,VWS V14.01,2013-08-20 17:25:00,
2013-08-20 12:30:00,83.8,72.5,30.03,ENE,68,0.0,0.0,69,0.00,,---,0.00,VWS V14.01,2013-08-20 17:30:00,
2013-08-20 12:35:00,83.6,72.8,30.03,ENE,68,0.0,0.0,70,0.00,,---,0.00,VWS V14.01,2013-08-20 17:35:00,
2013-08-20 12:40:00,83.2,72.8,30.03,ENE,68,0.0,0.0,71,0.00,,---,0.00,VWS V14.01,2013-08-20 17:40:00,
2013-08-20 12:45:00,83.8,73.4,30.03,NE,45,0.0,0.0,71,0.00,,---,0.00,VWS V14.01,2013-08-20 17:45:00,
2013-08-20 12:50:00,84.5,72.8,30.03,SW,225,0.0,0.0,68,0.00,,---,0.00,VWS V14.01,2013-08-20 17:50:00,
2013-08-20 12:55:00,85.2,71.2,30.03,NNW,338,2.5,2.5,63,0.00,,---,0.00,VWS V14.01,2013-08-20 17:55:00,
2013-08-20 13:00:00,85.7,71.7,30.03,West,270,0.0,0.0,63,0.00,,---,0.00,VWS V14.01,2013-08-20 18:00:00,
2013-08-20 13:05:00,86.1,73.0,30.03,ESE,112,3.1,3.1,65,0.00,,---,0.00,VWS V14.01,2013-08-20 18:05:00,
2013-08-20 13:10:00,85.9,72.8,30.03,WNW,292,1.1,1.1,65,0.00,,---,0.00,VWS V14.01,2013-08-20 18:10:00,
2013-08-20 13:15:00,85.9,72.3,30.03,WNW,292,1.1,1.1,64,0.00,,---,0.00,VWS V14.01,2013-08-20 18:15:00,
2013-08-20 13:20:00,86.3,73.1,30.03,NE,45,1.6,1.6,65,0.00,,---,0.00,VWS V14.01,2013-08-20 18:20:00,
2013-08-20 13:25:00,87.0,72.9,30.03,NE,45,0.0,0.0,63,0.00,,---,0.00,VWS V14.01,2013-08-20 18:25:00,
2013-08-20 13:30:00,87.5,73.4,30.03,ENE,68,0.0,1.6,63,0.00,,---,0.00,VWS V14.01,2013-08-20 18:30:00,
2013-08-20 13:35:00,87.7,73.6,30.03,WNW,292,0.0,0.0,63,0.00,,---,0.00,VWS V14.01,2013-08-20 18:35:00,
2013-08-20 13:40:00,87.7,72.6,30.03,SSE,158,2.5,2.5,61,0.00,,---,0.00,VWS V14.01,2013-08-20 18:40:00,
2013-08-20 13:45:00,88.1,72.5,30.03,SSW,202,0.0,0.0,60,0.00,,---,0.00,VWS V14.01,2013-08-20 18:45:00,
2013-08-20 13:50:00,88.4,72.3,30.03,South,180,0.0,0.0,59,0.00,,---,0.00,VWS V14.01,2013-08-20 18:50:00,
2013-08-20 13:55:00,88.3,71.6,30.00,NE,45,0.0,0.0,58,0.00,,---,0.00,VWS V14.01,2013-08-20 18:55:00,
2013-08-20 14:00:00,88.1,72.5,30.00,ENE,68,2.0,2.7,60,0.00,,---,0.00,VWS V14.01,2013-08-20 19:00:00,
2013-08-20 14:05:00,87.5,71.5,30.00,SW,225,0.0,1.6,59,0.00,,---,0.00,VWS V14.01,2013-08-20 19:05:00,
2013-08-20 14:10:00,86.8,71.3,30.00,SW,225,0.0,0.0,60,0.00,,---,0.00,VWS V14.01,2013-08-20 19:10:00,
2013-08-20 14:15:00,86.1,71.1,30.00,SW,225,0.0,0.0,61,0.00,,---,0.00,VWS V14.01,2013-08-20 19:15:00,
2013-08-20 14:20:00,85.9,71.9,30.00,WSW,248,0.0,0.0,63,0.00,,---,0.00,VWS V14.01,2013-08-20 19:20:00,
2013-08-20 14:25:00,86.6,72.1,30.00,WSW,248,0.0,0.0,62,0.00,,---,0.00,VWS V14.01,2013-08-20 19:25:00,
2013-08-20 14:30:00,86.3,72.2,30.00,WSW,248,0.0,0.0,63,0.00,,---,0.00,VWS V14.01,2013-08-20 19:30:00,
2013-08-20 14:35:00,85.7,72.2,30.00,ESE,112,0.0,0.0,64,0.00,,---,0.00,VWS V14.01,2013-08-20 19:35:00,
2013-08-20 14:40:00,85.7,72.6,30.00,ENE,68,0.0,0.0,65,0.00,,---,0.00,VWS V14.01,2013-08-20 19:40:00,
2013-08-20 14:46:00,85.7,73.5,30.00,WNW,292,0.0,0.0,67,0.00,,---,0.00,VWS V14.01,2013-08-20 19:46:00,
2013-08-20 14:51:00,86.1,73.4,30.00,ENE,68,0.0,0.0,66,0.00,,---,0.00,VWS V14.01,2013-08-20 19:51:00,
2013-08-20 14:56:00,85.7,73.5,30.00,ENE,68,0.0,0.0,67,0.00,,---,0.00,VWS V14.01,2013-08-20 19:56:00,
2013-08-20 15:01:00,86.5,74.2,30.00,SSW,202,0.0,0.0,67,0.00,,---,0.00,VWS V14.01,2013-08-20 20:01:00,
2013-08-20 15:06:00,87.4,73.2,30.00,SSE,158,0.0,1.6,63,0.00,,---,0.00,VWS V14.01,2013-08-20 20:06:00,
2013-08-20 15:11:00,87.4,72.8,30.00,SSE,158,2.7,2.9,62,0.00,,---,0.00,VWS V14.01,2013-08-20 20:11:00,
2013-08-20 15:16:00,87.9,73.7,30.00,ENE,68,0.0,0.0,63,0.00,,---,0.00,VWS V14.01,2013-08-20 20:16:00,
2013-08-20 15:21:00,88.3,74.6,30.00,ENE,68,0.0,0.0,64,0.00,,---,0.00,VWS V14.01,2013-08-20 20:21:00,
2013-08-20 15:26:00,88.6,73.9,29.97,SE,135,2.0,2.0,62,0.00,,---,0.00,VWS V14.01,2013-08-20 20:26:00,
2013-08-20 15:31:00,88.6,72.5,29.97,SE,135,2.0,2.0,59,0.00,,---,0.00,VWS V14.01,2013-08-20 20:31:00,
2013-08-20 15:36:00,88.3,72.1,29.97,SE,135,2.0,2.0,59,0.00,,---,0.00,VWS V14.01,2013-08-20 20:36:00,
2013-08-20 15:41:00,88.1,72.0,29.97,ENE,68,0.0,0.0,59,0.00,,---,0.00,VWS V14.01,2013-08-20 20:41:00,
2013-08-20 15:46:00,87.7,71.6,29.97,ENE,68,0.0,0.0,59,0.00,,---,0.00,VWS V14.01,2013-08-20 20:46:00,
2013-08-20 15:51:00,87.7,72.1,29.97,SSE,158,0.0,0.0,60,0.00,,---,0.00,VWS V14.01,2013-08-20 20:51:00,
2013-08-20 15:56:00,87.9,72.3,30.00,SSE,158,0.0,0.0,60,0.00,,---,0.00,VWS V14.01,2013-08-20 20:56:00,
2013-08-20 16:01:00,87.9,72.8,30.00,WNW,292,0.0,0.0,61,0.00,,---,0.00,VWS V14.01,2013-08-20 21:01:00,
2013-08-20 16:06:00,87.9,73.3,30.00,ENE,68,0.0,0.0,62,0.00,,---,0.00,VWS V14.01,2013-08-20 21:06:00,
2013-08-20 16:11:00,87.7,71.6,29.97,NW,315,0.0,0.0,59,0.00,,---,0.00,VWS V14.01,2013-08-20 21:11:00,
2013-08-20 16:16:00,87.5,70.9,29.97,NW,315,0.0,0.0,58,0.00,,---,0.00,VWS V14.01,2013-08-20 21:16:00,
2013-08-20 16:21:00,87.2,70.1,29.97,NW,315,0.0,0.0,57,0.00,,---,0.00,VWS V14.01,2013-08-20 21:21:00,
2013-08-20 16:26:00,87.0,70.4,30.00,NW,315,0.0,0.0,58,0.00,,---,0.00,VWS V14.01,2013-08-20 21:26:00,
2013-08-20 16:31:00,87.0,70.4,30.00,WNW,292,2.0,2.5,58,0.00,,---,0.00,VWS V14.01,2013-08-20 21:31:00,
2013-08-20 16:36:00,87.4,71.3,30.00,WNW,292,3.6,3.6,59,0.00,,---,0.00,VWS V14.01,2013-08-20 21:36:00,
2013-08-20 16:41:00,87.5,71.5,30.00,WNW,292,0.9,3.8,59,0.00,,---,0.00,VWS V14.01,2013-08-20 21:41:00,
2013-08-20 16:46:00,87.7,71.6,30.00,WSW,248,1.6,1.6,59,0.00,,---,0.00,VWS V14.01,2013-08-20 21:46:00,
2013-08-20 16:51:00,87.9,71.8,30.00,NNW,338,2.5,2.5,59,0.00,,---,0.00,VWS V14.01,2013-08-20 21:51:00,
2013-08-20 16:56:00,88.1,71.5,29.97,WNW,292,0.9,0.9,58,0.00,,---,0.00,VWS V14.01,2013-08-20 21:56:00,
2013-08-20 17:01:00,87.9,69.7,29.97,North,0,1.3,3.6,55,0.00,,---,0.00,VWS V14.01,2013-08-20 22:01:00,
2013-08-20 17:06:00,87.7,70.1,29.97,NNW,338,2.0,2.7,56,0.00,,---,0.00,VWS V14.01,2013-08-20 22:06:00,
2013-08-20 17:11:00,87.5,69.4,29.97,NNW,338,0.0,0.0,55,0.00,,---,0.00,VWS V14.01,2013-08-20 22:11:00,
2013-08-20 17:16:00,87.2,71.1,29.97,North,0,0.0,0.9,59,0.00,,---,0.00,VWS V14.01,2013-08-20 22:16:00,
2013-08-20 17:21:00,86.6,72.1,29.97,NE,45,0.0,0.0,62,0.00,,---,0.00,VWS V14.01,2013-08-20 22:21:00,
2013-08-20 17:26:00,86.1,72.0,30.00,NE,45,0.0,0.0,63,0.00,,---,0.00,VWS V14.01,2013-08-20 22:26:00,
2013-08-20 17:31:00,85.7,72.2,30.00,WNW,292,0.0,1.6,64,0.00,,---,0.00,VWS V14.01,2013-08-20 22:31:00,
2013-08-20 17:36:00,85.2,72.1,30.00,North,0,0.0,0.0,65,0.00,,---,0.00,VWS V14.01,2013-08-20 22:36:00,
2013-08-20 17:41:00,85.0,72.4,29.97,North,0,0.0,0.0,66,0.00,,---,0.00,VWS V14.01,2013-08-20 22:41:00,
2013-08-20 17:46:00,84.8,72.2,29.97,NW,315,0.0,0.0,66,0.00,,---,0.00,VWS V14.01,2013-08-20 22:46:00,
2013-08-20 17:52:00,84.5,72.3,29.97,North,0,0.0,0.0,67,0.00,,---,0.00,VWS V14.01,2013-08-20 22:52:00,
2013-08-20 17:57:00,84.1,72.4,29.97,North,0,0.0,0.0,68,0.00,,---,0.00,VWS V14.01,2013-08-20 22:57:00,
2013-08-20 18:02:00,83.8,72.5,29.97,North,0,0.0,0.0,69,0.00,,---,0.00,VWS V14.01,2013-08-20 23:02:00,
2013-08-20 18:07:00,83.4,73.0,29.97,NNE,22,0.0,0.0,71,0.00,,---,0.00,VWS V14.01,2013-08-20 23:07:00,
2013-08-20 18:12:00,83.0,72.7,29.97,NNE,22,0.0,0.0,71,0.00,,---,0.00,VWS V14.01,2013-08-20 23:12:00,
2013-08-20 18:17:00,82.9,72.9,29.97,NNE,22,0.0,0.0,72,0.00,,---,0.00,VWS V14.01,2013-08-20 23:17:00,
2013-08-20 18:22:00,82.7,73.6,29.97,NNE,22,0.0,0.0,74,0.00,,---,0.00,VWS V14.01,2013-08-20 23:22:00,
2013-08-20 18:27:00,82.5,73.4,29.97,NNE,22,0.0,0.0,74,0.00,,---,0.00,VWS V14.01,2013-08-20 23:27:00,
2013-08-20 18:32:00,82.3,73.6,29.97,NNE,22,0.0,0.0,75,0.00,,---,0.00,VWS V14.01,2013-08-20 23:32:00,
2013-08-20 18:37:00,82.1,73.8,29.97,NNE,22,0.0,0.0,76,0.00,,---,0.00,VWS V14.01,2013-08-20 23:37:00,
2013-08-20 18:42:00,82.0,74.0,29.97,NNE,22,0.0,0.0,77,0.00,,---,0.00,VWS V14.01,2013-08-20 23:42:00,
2013-08-20 18:47:00,82.0,74.0,29.97,NNE,22,0.0,0.0,77,0.00,,---,0.00,VWS V14.01,2013-08-20 23:47:00,
2013-08-20 18:52:00,81.8,74.2,29.97,NNE,22,0.0,0.0,78,0.00,,---,0.00,VWS V14.01,2013-08-20 23:52:00,
2013-08-20 18:57:00,81.6,74.1,30.00,NNE,22,0.0,0.0,78,0.00,,---,0.00,VWS V14.01,2013-08-20 23:57:00,
2013-08-20 19:02:00,81.4,74.3,30.00,NNE,22,0.0,0.0,79,0.00,,---,0.00,VWS V14.01,2013-08-21 00:02:00,
2013-08-20 19:07:00,81.2,74.5,30.00,NNE,22,0.0,0.0,80,0.00,,---,0.00,VWS V14.01,2013-08-21 00:07:00,
2013-08-20 19:12:00,81.1,74.7,30.00,NNE,22,0.0,0.0,81,0.00,,---,0.00,VWS V14.01,2013-08-21 00:12:00,
2013-08-20 19:17:00,80.9,74.5,30.00,NNE,22,0.0,0.0,81,0.00,,---,0.00,VWS V14.01,2013-08-21 00:17:00,
2013-08-20 19:22:00,80.7,74.7,30.00,NE,45,0.0,0.0,82,0.00,,---,0.00,VWS V14.01,2013-08-21 00:22:00,
2013-08-20 19:27:00,80.5,74.5,30.00,NE,45,0.0,0.0,82,0.00,,---,0.00,VWS V14.01,2013-08-21 00:27:00,
2013-08-20 19:32:00,80.5,74.2,30.00,NE,45,0.0,0.0,81,0.00,,---,0.00,VWS V14.01,2013-08-21 00:32:00,
2013-08-20 19:37:00,80.3,74.0,30.00,NE,45,0.0,0.0,81,0.00,,---,0.00,VWS V14.01,2013-08-21 00:37:00,
2013-08-20 19:42:00,80.2,73.8,30.00,SE,135,0.0,0.0,81,0.00,,---,0.00,VWS V14.01,2013-08-21 00:42:00,
2013-08-20 19:47:00,80.0,74.0,30.00,North,0,0.0,0.0,82,0.00,,---,0.00,VWS V14.01,2013-08-21 00:47:00,
2013-08-20 19:52:00,79.6,74.4,30.00,NNW,338,0.0,0.0,84,0.00,,---,0.00,VWS V14.01,2013-08-21 00:52:00,
2013-08-20 19:57:00,79.6,74.4,30.00,NNW,338,0.0,0.0,84,0.00,,---,0.00,VWS V14.01,2013-08-21 00:57:00,
2013-08-20 20:02:00,79.4,73.8,30.00,NNW,338,0.0,0.0,83,0.00,,---,0.00,VWS V14.01,2013-08-21 01:02:00,
2013-08-20 20:07:00,79.3,73.7,30.00,NNW,338,0.0,0.0,83,0.00,,---,0.00,VWS V14.01,2013-08-21 01:07:00,
2013-08-20 20:12:00,79.3,74.0,30.00,NNW,338,0.0,0.0,84,0.00,,---,0.00,VWS V14.01,2013-08-21 01:12:00,
2013-08-20 20:17:00,79.1,73.8,30.00,NNE,22,0.0,0.0,84,0.00,,---,0.00,VWS V14.01,2013-08-21 01:17:00,
2013-08-20 20:19:00,79.1,73.8,30.00,NNE,22,0.0,0.0,84,0.00,,---,0.00,VWS V14.01,2013-08-21 01:19:00,
2013-08-20 20:24:00,78.9,73.7,30.00,NNE,22,0.0,0.0,84,0.00,,---,0.00,VWS V14.01,2013-08-21 01:24:00,
2013-08-20 20:29:00,78.9,74.0,30.00,North,0,0.0,0.0,85,0.00,,---,0.00,VWS V14.01,2013-08-21 01:29:00,
2013-08-20 20:34:00,78.9,74.0,30.00,ENE,68,0.0,0.0,85,0.00,,---,0.00,VWS V14.01,2013-08-21 01:34:00,
2013-08-20 20:39:00,78.7,74.2,30.00,SSE,158,5.8,5.8,86,0.00,,---,0.00,VWS V14.01,2013-08-21 01:39:00,
2013-08-20 20:44:00,78.5,74.0,30.00,ESE,112,3.1,3.1,86,0.00,,---,0.00,VWS V14.01,2013-08-21 01:44:00,
2013-08-20 20:49:00,77.6,73.8,30.00,ESE,112,0.0,0.9,88,0.20,,---,0.20,VWS V14.01,2013-08-21 01:49:00,
2013-08-20 20:54:00,76.7,72.6,30.00,NNW,338,0.0,0.0,87,0.29,,---,0.29,VWS V14.01,2013-08-21 01:54:00,
2013-08-20 20:59:00,76.2,72.4,30.00,NNE,22,0.0,0.0,88,0.45,,---,0.45,VWS V14.01,2013-08-21 01:59:00,
2013-08-20 21:04:00,75.7,71.9,30.00,WNW,292,0.0,0.0,88,0.45,,---,0.45,VWS V14.01,2013-08-21 02:04:00,
2013-08-20 21:09:00,75.5,72.0,30.03,WSW,248,0.0,0.0,89,0.45,,---,0.45,VWS V14.01,2013-08-21 02:09:00,
2013-08-20 21:14:00,75.3,71.8,30.03,WSW,248,0.0,0.0,89,0.45,,---,0.45,VWS V14.01,2013-08-21 02:14:00,
2013-08-20 21:19:00,75.3,72.2,30.03,WSW,248,0.0,0.0,90,0.45,,---,0.45,VWS V14.01,2013-08-21 02:19:00,
2013-08-20 21:24:00,75.1,72.0,30.03,WSW,248,0.0,0.0,90,0.45,,---,0.45,VWS V14.01,2013-08-21 02:24:00,
2013-08-20 21:29:00,74.9,71.8,30.03,WSW,248,0.0,0.0,90,0.45,,---,0.45,VWS V14.01,2013-08-21 02:29:00,
2013-08-20 21:34:00,74.9,72.1,30.03,WSW,248,0.0,0.0,91,0.45,,---,0.45,VWS V14.01,2013-08-21 02:34:00,
2013-08-20 21:39:00,74.9,72.5,30.03,WSW,248,0.0,0.0,92,0.45,,---,0.45,VWS V14.01,2013-08-21 02:39:00,
2013-08-20 21:44:00,74.9,72.5,30.03,WSW,248,0.0,0.0,92,0.45,,---,0.45,VWS V14.01,2013-08-21 02:44:00,
2013-08-20 21:49:00,74.8,72.3,30.03,WSW,248,0.0,0.0,92,0.25,,---,0.45,VWS V14.01,2013-08-21 02:49:00,
2013-08-20 21:54:00,74.8,72.3,30.03,WSW,248,0.0,0.0,92,0.16,,---,0.45,VWS V14.01,2013-08-21 02:54:00,
2013-08-20 21:59:00,74.8,72.6,30.03,WSW,248,0.0,0.0,93,0.00,,---,0.45,VWS V14.01,2013-08-21 02:59:00,
2013-08-20 22:04:00,74.8,72.3,30.03,WSW,248,0.0,0.0,92,0.00,,---,0.45,VWS V14.01,2013-08-21 03:04:00,
2013-08-20 22:09:00,74.9,72.8,30.03,WSW,248,0.0,0.0,93,0.00,,---,0.45,VWS V14.01,2013-08-21 03:09:00,
2013-08-20 22:14:00,74.8,72.9,30.03,WSW,248,0.0,0.0,94,0.00,,---,0.45,VWS V14.01,2013-08-21 03:14:00,
2013-08-20 22:19:00,74.8,72.9,30.03,WSW,248,0.0,0.0,94,0.00,,---,0.45,VWS V14.01,2013-08-21 03:19:00,
2013-08-20 22:24:00,74.8,72.9,30.03,WSW,248,0.0,0.0,94,0.00,,---,0.45,VWS V14.01,2013-08-21 03:24:00,
2013-08-20 22:29:00,74.8,72.6,30.03,WSW,248,0.0,0.0,93,0.00,,---,0.45,VWS V14.01,2013-08-21 03:29:00,
2013-08-20 22:34:00,74.8,72.9,30.03,WSW,248,0.0,0.0,94,0.00,,---,0.45,VWS V14.01,2013-08-21 03:34:00,
2013-08-20 22:39:00,74.8,72.9,30.03,WSW,248,0.0,0.0,94,0.00,,---,0.45,VWS V14.01,2013-08-21 03:39:00,
2013-08-20 22:44:00,74.8,72.9,30.03,WSW,248,0.0,0.0,94,0.00,,---,0.45,VWS V14.01,2013-08-21 03:44:00,
2013-08-20 22:49:00,74.8,72.9,30.03,WSW,248,0.0,0.0,94,0.00,,---,0.45,VWS V14.01,2013-08-21 03:49:00,
2013-08-20 22:54:00,74.6,72.7,30.03,WSW,248,0.0,0.0,94,0.00,,---,0.45,VWS V14.01,2013-08-21 03:54:00,
2013-08-20 22:59:00,74.6,73.1,30.03,WSW,248,0.0,0.0,95,0.00,,---,0.45,VWS V14.01,2013-08-21 03:59:00,
2013-08-20 23:01:00,74.6,73.1,30.03,WSW,248,0.0,0.0,95,0.00,,---,0.45,VWS V14.01,2013-08-21 04:01:00,
2013-08-20 23:06:00,74.6,73.1,30.03,WSW,248,0.0,0.0,95,0.00,,---,0.45,VWS V14.01,2013-08-21 04:06:00,
2013-08-20 23:11:00,74.6,73.1,30.03,WSW,248,0.0,0.0,95,0.00,,---,0.45,VWS V14.01,2013-08-21 04:11:00,
2013-08-20 23:16:00,74.6,73.1,30.03,WSW,248,0.0,0.0,95,0.00,,---,0.45,VWS V14.01,2013-08-21 04:16:00,
2013-08-20 23:21:00,74.6,73.1,30.03,WSW,248,0.0,0.0,95,0.00,,---,0.45,VWS V14.01,2013-08-21 04:21:00,
2013-08-20 23:26:00,74.4,72.9,30.03,WSW,248,0.0,0.0,95,0.00,,---,0.45,VWS V14.01,2013-08-21 04:26:00,
2013-08-20 23:31:00,74.4,72.9,30.03,WSW,248,0.0,0.0,95,0.00,,---,0.45,VWS V14.01,2013-08-21 04:31:00,
2013-08-20 23:36:00,74.4,72.9,30.03,WSW,248,0.0,0.0,95,0.00,,---,0.45,VWS V14.01,2013-08-21 04:36:00,
2013-08-20 23:41:00,74.4,72.9,30.03,WSW,248,0.0,0.0,95,0.00,,---,0.45,VWS V14.01,2013-08-21 04:41:00,
2013-08-20 23:46:00,74.2,72.7,30.03,WSW,248,0.0,0.0,95,0.00,,---,0.45,VWS V14.01,2013-08-21 04:46:00,
2013-08-20 23:51:00,74.2,72.7,30.03,WSW,248,0.0,0.0,95,0.00,,---,0.45,VWS V14.01,2013-08-21 04:51:00,
2013-08-20 23:56:00,74.2,72.7,30.03,WSW,248,0.0,0.0,95,0.00,,---,0.45,VWS V14.01,2013-08-21 04:56:00,